contact:dominique.lefevre@mio.osupytheas.fr, maurice.libes@osupytheas.fr, didier.mallarino@osupytheas.fr
Project:EMSO http://www.emso-fr.org/EMSO-France
Depth: 2436.0 m
Title:EMSO Ligure Ouest : Data MII capteur CSTAR
DateTime,Latitude,Longitude,Instrument_Serial,Reference_Counts,Signal_Counts,Corrected_Signal_raw_counts,Calculated_Beam_c_inverse_meters,Internal_thermistor_counts
DateTime,Latitude,Longitude,Instrument_Serial,Reference_Counts,Signal_Counts,Corrected_Signal_raw_counts,Calculated_Beam_c_inverse_meters,Internal_thermistor_counts
2022-12-01T00:01:49,42.805,6.029,CST-1368DR,4473,5107,12140,01.007,551
2022-12-01T00:04:51,42.805,6.029,CST-1368DR,4473,5106,12140,01.007,551
2022-12-01T00:07:52,42.805,6.029,CST-1368DR,4473,5106,12139,01.007,551
2022-12-01T00:10:54,42.805,6.029,CST-1368DR,4473,5106,12138,01.008,551
2022-12-01T00:13:56,42.805,6.029,CST-1368DR,4473,5105,12137,01.008,551
2022-12-01T00:16:57,42.805,6.029,CST-1368DR,4473,5106,12138,01.008,551
2022-12-01T00:19:59,42.805,6.029,CST-1368DR,4473,5106,12140,01.007,551
2022-12-01T00:23:00,42.805,6.029,CST-1368DR,4473,5105,12137,01.008,551
2022-12-01T00:26:02,42.805,6.029,CST-1368DR,4473,5107,12141,01.007,551
2022-12-01T00:29:03,42.805,6.029,CST-1368DR,4473,5106,12138,01.008,551
2022-12-01T00:32:05,42.805,6.029,CST-1368DR,4473,5107,12140,01.007,551
2022-12-01T00:35:06,42.805,6.029,CST-1368DR,4473,5107,12142,01.007,551
2022-12-01T00:38:08,42.805,6.029,CST-1368DR,4473,5107,12140,01.007,551
2022-12-01T00:41:10,42.805,6.029,CST-1368DR,4473,5107,12141,01.007,551
2022-12-01T00:44:11,42.805,6.029,CST-1368DR,4473,5106,12138,01.008,551
2022-12-01T00:47:13,42.805,6.029,CST-1368DR,4473,5107,12141,01.007,551
2022-12-01T00:50:14,42.805,6.029,CST-1368DR,4473,5106,12139,01.007,551
2022-12-01T00:53:16,42.805,6.029,CST-1368DR,4473,5107,12140,01.007,551
2022-12-01T00:56:18,42.805,6.029,CST-1368DR,4473,5105,12137,01.008,551
2022-12-01T00:59:19,42.805,6.029,CST-1368DR,4473,5107,12141,01.007,551
2022-12-01T01:02:21,42.805,6.029,CST-1368DR,4473,5106,12139,01.007,551
2022-12-01T01:05:22,42.805,6.029,CST-1368DR,4473,5107,12141,01.007,551
2022-12-01T01:08:24,42.805,6.029,CST-1368DR,4473,5106,12140,01.007,551
2022-12-01T01:11:25,42.805,6.029,CST-1368DR,4473,5105,12137,01.008,551
2022-12-01T01:14:27,42.805,6.029,CST-1368DR,4473,5106,12139,01.007,551
2022-12-01T01:17:29,42.805,6.029,CST-1368DR,4473,5105,12137,01.008,551
2022-12-01T01:20:30,42.805,6.029,CST-1368DR,4473,5105,12137,01.008,551
2022-12-01T01:23:32,42.805,6.029,CST-1368DR,4473,5107,12140,01.007,551
2022-12-01T01:26:33,42.805,6.029,CST-1368DR,4473,5107,12142,01.007,551
2022-12-01T01:29:35,42.805,6.029,CST-1368DR,4473,5105,12137,01.008,551
2022-12-01T01:32:37,42.805,6.029,CST-1368DR,4473,5106,12138,01.008,551
2022-12-01T01:35:38,42.805,6.029,CST-1368DR,4473,5106,12140,01.007,551
2022-12-01T01:38:40,42.805,6.029,CST-1368DR,4473,5105,12136,01.008,551
2022-12-01T01:41:41,42.805,6.029,CST-1368DR,4473,5106,12140,01.007,551
2022-12-01T01:44:43,42.805,6.029,CST-1368DR,4473,5105,12137,01.008,551
2022-12-01T01:47:44,42.805,6.029,CST-1368DR,4473,5107,12141,01.007,551
2022-12-01T01:50:46,42.805,6.029,CST-1368DR,4473,5107,12142,01.007,551
2022-12-01T01:53:48,42.805,6.029,CST-1368DR,4473,5106,12139,01.007,551
2022-12-01T01:56:49,42.805,6.029,CST-1368DR,4473,5106,12140,01.007,551
2022-12-01T01:59:51,42.805,6.029,CST-1368DR,4473,5107,12141,01.007,551
2022-12-01T02:02:52,42.805,6.029,CST-1368DR,4473,5107,12140,01.007,551
2022-12-01T02:05:54,42.805,6.029,CST-1368DR,4473,5108,12143,01.006,551
2022-12-01T02:08:55,42.805,6.029,CST-1368DR,4473,5108,12143,01.006,551
2022-12-01T02:11:57,42.805,6.029,CST-1368DR,4473,5109,12147,01.005,551
2022-12-01T02:14:59,42.805,6.029,CST-1368DR,4473,5106,12139,01.007,551
2022-12-01T02:18:00,42.805,6.029,CST-1368DR,4473,5105,12136,01.008,551
2022-12-01T02:21:02,42.805,6.029,CST-1368DR,4473,5106,12140,01.007,551
2022-12-01T02:24:03,42.805,6.029,CST-1368DR,4473,5107,12141,01.007,551
2022-12-01T02:27:05,42.805,6.029,CST-1368DR,4473,5106,12140,01.007,551
2022-12-01T02:30:06,42.805,6.029,CST-1368DR,4473,5109,12145,01.006,551
2022-12-01T02:33:08,42.805,6.029,CST-1368DR,4473,5105,12136,01.008,551
2022-12-01T02:36:10,42.805,6.029,CST-1368DR,4473,5105,12137,01.008,551
2022-12-01T02:39:11,42.805,6.029,CST-1368DR,4473,5107,12141,01.007,551
2022-12-01T02:42:13,42.805,6.029,CST-1368DR,4473,5106,12138,01.008,551
2022-12-01T02:45:14,42.805,6.029,CST-1368DR,4473,5105,12136,01.008,551
2022-12-01T02:48:16,42.805,6.029,CST-1368DR,4473,5104,12135,01.009,551
2022-12-01T02:51:17,42.805,6.029,CST-1368DR,4473,5104,12135,01.009,551
2022-12-01T02:54:19,42.805,6.029,CST-1368DR,4473,5106,12138,01.008,551
2022-12-01T02:57:21,42.805,6.029,CST-1368DR,4473,5107,12141,01.007,551
2022-12-01T03:00:22,42.805,6.029,CST-1368DR,4473,5106,12140,01.007,551
2022-12-01T03:03:24,42.805,6.029,CST-1368DR,4473,5105,12137,01.008,551
2022-12-01T03:06:25,42.805,6.029,CST-1368DR,4473,5105,12137,01.008,551
2022-12-01T03:09:27,42.805,6.029,CST-1368DR,4473,5106,12139,01.007,551
2022-12-01T03:12:28,42.805,6.029,CST-1368DR,4473,5106,12138,01.008,551
2022-12-01T03:15:30,42.805,6.029,CST-1368DR,4473,5106,12138,01.008,551
2022-12-01T03:18:32,42.805,6.029,CST-1368DR,4473,5105,12137,01.008,551
2022-12-01T03:21:33,42.805,6.029,CST-1368DR,4473,5104,12135,01.009,551
2022-12-01T03:24:35,42.805,6.029,CST-1368DR,4473,5105,12137,01.008,551
2022-12-01T03:27:36,42.805,6.029,CST-1368DR,4473,5107,12140,01.007,551
2022-12-01T03:30:38,42.805,6.029,CST-1368DR,4473,5106,12140,01.007,551
2022-12-01T03:33:39,42.805,6.029,CST-1368DR,4473,5106,12138,01.008,551
2022-12-01T03:36:41,42.805,6.029,CST-1368DR,4473,5105,12137,01.008,551
2022-12-01T03:39:43,42.805,6.029,CST-1368DR,4473,5105,12136,01.008,551
2022-12-01T03:42:44,42.805,6.029,CST-1368DR,4473,5105,12137,01.008,551
2022-12-01T03:45:46,42.805,6.029,CST-1368DR,4473,5106,12138,01.008,551
2022-12-01T03:48:47,42.805,6.029,CST-1368DR,4473,5106,12139,01.007,551
2022-12-01T03:51:49,42.805,6.029,CST-1368DR,4473,5104,12135,01.009,551
2022-12-01T03:54:50,42.805,6.029,CST-1368DR,4473,5105,12136,01.008,551
2022-12-01T03:57:52,42.805,6.029,CST-1368DR,4473,5105,12137,01.008,551
2022-12-01T04:00:54,42.805,6.029,CST-1368DR,4473,5105,12137,01.008,551
2022-12-01T04:03:55,42.805,6.029,CST-1368DR,4473,5105,12136,01.008,551
2022-12-01T04:06:57,42.805,6.029,CST-1368DR,4473,5106,12139,01.007,551
2022-12-01T04:09:58,42.805,6.029,CST-1368DR,4473,5105,12137,01.008,551
2022-12-01T04:13:00,42.805,6.029,CST-1368DR,4473,5106,12139,01.007,551
2022-12-01T04:16:01,42.805,6.029,CST-1368DR,4473,5107,12141,01.007,551
2022-12-01T04:19:03,42.805,6.029,CST-1368DR,4473,5106,12138,01.008,551
2022-12-01T04:22:05,42.805,6.029,CST-1368DR,4473,5106,12139,01.007,551
2022-12-01T04:25:06,42.805,6.029,CST-1368DR,4473,5107,12140,01.007,551
2022-12-01T04:28:08,42.805,6.029,CST-1368DR,4473,5105,12137,01.008,551
2022-12-01T04:31:09,42.805,6.029,CST-1368DR,4473,5107,12141,01.007,551
2022-12-01T04:34:11,42.805,6.029,CST-1368DR,4473,5106,12139,01.007,551
2022-12-01T04:37:12,42.805,6.029,CST-1368DR,4473,5106,12138,01.008,551
2022-12-01T04:40:14,42.805,6.029,CST-1368DR,4473,5105,12137,01.008,551
2022-12-01T04:43:16,42.805,6.029,CST-1368DR,4473,5105,12137,01.008,551
2022-12-01T04:46:17,42.805,6.029,CST-1368DR,4473,5105,12137,01.008,551
2022-12-01T04:49:19,42.805,6.029,CST-1368DR,4473,5105,12137,01.008,551
2022-12-01T04:52:20,42.805,6.029,CST-1368DR,4473,5106,12140,01.007,551
2022-12-01T04:55:22,42.805,6.029,CST-1368DR,4473,5106,12138,01.008,551
2022-12-01T04:58:23,42.805,6.029,CST-1368DR,4473,5106,12139,01.007,551
2022-12-01T05:01:25,42.805,6.029,CST-1368DR,4473,5105,12137,01.008,551
2022-12-01T05:04:27,42.805,6.029,CST-1368DR,4473,5107,12142,01.007,551
2022-12-01T05:07:28,42.805,6.029,CST-1368DR,4473,5106,12139,01.007,551
2022-12-01T05:10:30,42.805,6.029,CST-1368DR,4473,5106,12139,01.007,551
2022-12-01T05:13:31,42.805,6.029,CST-1368DR,4473,5105,12137,01.008,551
2022-12-01T05:16:33,42.805,6.029,CST-1368DR,4473,5105,12137,01.008,551
2022-12-01T05:19:35,42.805,6.029,CST-1368DR,4473,5108,12144,01.006,551
2022-12-01T05:22:36,42.805,6.029,CST-1368DR,4473,5107,12140,01.007,551
2022-12-01T05:25:38,42.805,6.029,CST-1368DR,4473,5107,12140,01.007,551
2022-12-01T05:28:39,42.805,6.029,CST-1368DR,4473,5108,12143,01.006,551
2022-12-01T05:31:41,42.805,6.029,CST-1368DR,4473,5105,12137,01.008,551
2022-12-01T05:34:42,42.805,6.029,CST-1368DR,4473,5107,12142,01.007,551
2022-12-01T05:37:44,42.805,6.029,CST-1368DR,4473,5108,12143,01.006,551
2022-12-01T05:40:46,42.805,6.029,CST-1368DR,4473,5108,12143,01.006,551
2022-12-01T05:43:47,42.805,6.029,CST-1368DR,4473,5107,12142,01.007,551
2022-12-01T05:46:49,42.805,6.029,CST-1368DR,4473,5108,12144,01.006,551
2022-12-01T05:49:50,42.805,6.029,CST-1368DR,4473,5107,12141,01.007,551
2022-12-01T05:52:52,42.805,6.029,CST-1368DR,4473,5108,12143,01.006,551
2022-12-01T05:55:53,42.805,6.029,CST-1368DR,4473,5106,12139,01.007,551
2022-12-01T05:58:55,42.805,6.029,CST-1368DR,4473,5108,12143,01.006,551
2022-12-01T06:01:57,42.805,6.029,CST-1368DR,4473,5106,12139,01.007,551
2022-12-01T06:04:58,42.805,6.029,CST-1368DR,4473,5107,12142,01.007,551
2022-12-01T06:08:00,42.805,6.029,CST-1368DR,4473,5107,12140,01.007,551
2022-12-01T06:11:01,42.805,6.029,CST-1368DR,4473,5106,12139,01.007,551
2022-12-01T06:14:03,42.805,6.029,CST-1368DR,4473,5107,12141,01.007,551
2022-12-01T06:17:04,42.805,6.029,CST-1368DR,4472,5107,12145,01.006,551
2022-12-01T06:20:06,42.805,6.029,CST-1368DR,4473,5108,12143,01.006,551
2022-12-01T06:23:08,42.805,6.029,CST-1368DR,4473,5107,12141,01.007,551
2022-12-01T06:26:09,42.805,6.029,CST-1368DR,4473,5108,12143,01.006,551
2022-12-01T06:29:11,42.805,6.029,CST-1368DR,4473,5105,12136,01.008,551
2022-12-01T06:32:12,42.805,6.029,CST-1368DR,4473,5107,12142,01.007,551
2022-12-01T06:35:14,42.805,6.029,CST-1368DR,4473,5107,12140,01.007,551
2022-12-01T06:38:16,42.805,6.029,CST-1368DR,4473,5106,12140,01.007,551
2022-12-01T06:41:17,42.805,6.029,CST-1368DR,4473,5107,12142,01.007,551
2022-12-01T06:44:19,42.805,6.029,CST-1368DR,4473,5109,12147,01.005,551
2022-12-01T06:47:20,42.805,6.029,CST-1368DR,4473,5107,12141,01.007,551
2022-12-01T06:50:22,42.805,6.029,CST-1368DR,4473,5118,12167,0.998,551
2022-12-01T06:53:23,42.805,6.029,CST-1368DR,4473,5117,12166,0.999,551
2022-12-01T06:56:25,42.805,6.029,CST-1368DR,4473,5116,12162,01.000,551
2022-12-01T06:59:27,42.805,6.029,CST-1368DR,4473,5116,12163,01.000,551
2022-12-01T07:02:28,42.805,6.029,CST-1368DR,4473,5116,12164,0.999,551
2022-12-01T07:05:30,42.805,6.029,CST-1368DR,4473,5117,12165,0.999,551
2022-12-01T07:08:31,42.805,6.029,CST-1368DR,4473,5118,12167,0.998,551
2022-12-01T07:11:33,42.805,6.029,CST-1368DR,4473,5117,12165,0.999,551
2022-12-01T07:14:34,42.805,6.029,CST-1368DR,4473,5117,12165,0.999,551
2022-12-01T07:17:36,42.805,6.029,CST-1368DR,4473,5117,12165,0.999,551
2022-12-01T07:20:38,42.805,6.029,CST-1368DR,4473,5117,12166,0.999,551
2022-12-01T07:23:39,42.805,6.029,CST-1368DR,4473,5118,12167,0.998,551
2022-12-01T07:26:41,42.805,6.029,CST-1368DR,4473,5118,12167,0.998,551
2022-12-01T07:29:42,42.805,6.029,CST-1368DR,4473,5116,12164,0.999,551
2022-12-01T07:32:44,42.805,6.029,CST-1368DR,4473,5116,12162,01.000,551
2022-12-01T07:35:46,42.805,6.029,CST-1368DR,4473,5116,12162,01.000,551
2022-12-01T07:38:47,42.805,6.029,CST-1368DR,4473,5117,12165,0.999,551
2022-12-01T07:41:49,42.805,6.029,CST-1368DR,4473,5118,12167,0.998,551
2022-12-01T07:44:50,42.805,6.029,CST-1368DR,4473,5117,12165,0.999,551
2022-12-01T07:47:52,42.805,6.029,CST-1368DR,4473,5118,12167,0.998,551
2022-12-01T07:50:53,42.805,6.029,CST-1368DR,4472,5118,12169,0.998,551
2022-12-01T07:53:55,42.805,6.029,CST-1368DR,4473,5116,12164,0.999,551
2022-12-01T07:56:57,42.805,6.029,CST-1368DR,4473,5117,12164,0.999,551
2022-12-01T07:59:58,42.805,6.029,CST-1368DR,4473,5117,12165,0.999,551
2022-12-01T08:03:00,42.805,6.029,CST-1368DR,4473,5117,12166,0.999,551
2022-12-01T08:06:01,42.805,6.029,CST-1368DR,4472,5116,12166,0.999,551
2022-12-01T08:09:03,42.805,6.029,CST-1368DR,4472,5116,12166,0.999,551
2022-12-01T08:12:04,42.805,6.029,CST-1368DR,4473,5117,12165,0.999,551
2022-12-01T08:15:06,42.805,6.029,CST-1368DR,4472,5117,12167,0.998,551
2022-12-01T08:18:08,42.805,6.029,CST-1368DR,4472,5117,12168,0.998,551
2022-12-01T08:21:09,42.805,6.029,CST-1368DR,4473,5117,12165,0.999,551
2022-12-01T08:24:11,42.805,6.029,CST-1368DR,4473,5118,12167,0.998,551
2022-12-01T08:27:12,42.805,6.029,CST-1368DR,4472,5116,12166,0.999,551
2022-12-01T08:30:14,42.805,6.029,CST-1368DR,4473,5118,12167,0.998,551
2022-12-01T08:33:15,42.805,6.029,CST-1368DR,4472,5118,12169,0.998,551
2022-12-01T08:36:17,42.805,6.029,CST-1368DR,4473,5118,12167,0.998,551
2022-12-01T08:39:19,42.805,6.029,CST-1368DR,4472,5117,12168,0.998,550
2022-12-01T08:42:20,42.805,6.029,CST-1368DR,4472,5118,12170,0.997,551
2022-12-01T08:45:22,42.805,6.029,CST-1368DR,4472,5118,12170,0.997,551
2022-12-01T08:48:23,42.805,6.029,CST-1368DR,4473,5118,12167,0.998,551
2022-12-01T08:51:25,42.805,6.029,CST-1368DR,4472,5117,12168,0.998,551
2022-12-01T08:54:27,42.805,6.029,CST-1368DR,4473,5118,12167,0.998,551
2022-12-01T08:57:28,42.805,6.029,CST-1368DR,4473,5116,12163,01.000,551
2022-12-01T09:00:30,42.805,6.029,CST-1368DR,4472,5117,12168,0.998,551
2022-12-01T09:03:31,42.805,6.029,CST-1368DR,4472,5118,12170,0.997,551
2022-12-01T09:06:33,42.805,6.029,CST-1368DR,4472,5118,12170,0.997,551
2022-12-01T09:09:34,42.805,6.029,CST-1368DR,4472,5118,12169,0.998,551
2022-12-01T09:12:36,42.805,6.029,CST-1368DR,4472,5117,12169,0.998,551
2022-12-01T09:15:38,42.805,6.029,CST-1368DR,4472,5118,12169,0.998,551
2022-12-01T09:18:39,42.805,6.029,CST-1368DR,4472,5117,12169,0.998,551
2022-12-01T09:21:41,42.805,6.029,CST-1368DR,4472,5117,12167,0.998,551
2022-12-01T09:24:42,42.805,6.029,CST-1368DR,4472,5117,12167,0.998,551
2022-12-01T09:27:44,42.805,6.029,CST-1368DR,4472,5117,12167,0.998,551
2022-12-01T09:30:45,42.805,6.029,CST-1368DR,4472,5117,12169,0.998,551
2022-12-01T09:33:47,42.805,6.029,CST-1368DR,4472,5117,12168,0.998,551
2022-12-01T09:36:49,42.805,6.029,CST-1368DR,4472,5118,12169,0.998,551
2022-12-01T09:39:50,42.805,6.029,CST-1368DR,4472,5118,12170,0.997,551
2022-12-01T09:42:52,42.805,6.029,CST-1368DR,4472,5117,12168,0.998,551
2022-12-01T09:45:53,42.805,6.029,CST-1368DR,4472,5117,12168,0.998,551
2022-12-01T09:48:55,42.805,6.029,CST-1368DR,4472,5117,12169,0.998,551
2022-12-01T09:51:56,42.805,6.029,CST-1368DR,4472,5117,12168,0.998,551
2022-12-01T09:54:58,42.805,6.029,CST-1368DR,4472,5118,12169,0.998,551
2022-12-01T09:58:00,42.805,6.029,CST-1368DR,4472,5118,12169,0.998,551
2022-12-01T10:01:01,42.805,6.029,CST-1368DR,4472,5117,12168,0.998,551
2022-12-01T10:04:03,42.805,6.029,CST-1368DR,4472,5117,12167,0.998,551
2022-12-01T10:07:04,42.805,6.029,CST-1368DR,4472,5117,12167,0.998,551
2022-12-01T10:10:06,42.805,6.029,CST-1368DR,4472,5117,12169,0.998,551
2022-12-01T10:13:08,42.805,6.029,CST-1368DR,4472,5118,12169,0.998,551
2022-12-01T10:16:09,42.805,6.029,CST-1368DR,4472,5117,12168,0.998,551
2022-12-01T10:19:11,42.805,6.029,CST-1368DR,4472,5115,12163,01.000,551
2022-12-01T10:22:12,42.805,6.029,CST-1368DR,4472,5117,12168,0.998,551
2022-12-01T10:25:14,42.805,6.029,CST-1368DR,4472,5114,12161,01.000,551
2022-12-01T10:28:15,42.805,6.029,CST-1368DR,4472,5111,12154,01.003,551
2022-12-01T10:31:17,42.805,6.029,CST-1368DR,4472,5118,12169,0.998,551
2022-12-01T10:34:19,42.805,6.029,CST-1368DR,4472,5116,12166,0.999,551
2022-12-01T10:37:20,42.805,6.029,CST-1368DR,4472,5118,12169,0.998,551
2022-12-01T10:40:22,42.805,6.029,CST-1368DR,4472,5117,12167,0.998,551
2022-12-01T10:43:23,42.805,6.029,CST-1368DR,4472,5116,12166,0.999,551
2022-12-01T10:46:25,42.805,6.029,CST-1368DR,4473,5117,12166,0.999,551
2022-12-01T10:49:26,42.805,6.029,CST-1368DR,4472,5117,12167,0.998,551
2022-12-01T10:52:28,42.805,6.029,CST-1368DR,4472,5116,12164,0.999,551
2022-12-01T10:55:30,42.805,6.029,CST-1368DR,4472,5116,12166,0.999,551
2022-12-01T10:58:31,42.805,6.029,CST-1368DR,4472,5117,12167,0.998,551
2022-12-01T11:01:33,42.805,6.029,CST-1368DR,4472,5118,12170,0.997,551
2022-12-01T11:04:34,42.805,6.029,CST-1368DR,4472,5118,12169,0.998,551
2022-12-01T11:07:36,42.805,6.029,CST-1368DR,4472,5117,12168,0.998,551
2022-12-01T11:10:38,42.805,6.029,CST-1368DR,4472,5116,12166,0.999,551
2022-12-01T11:13:39,42.805,6.029,CST-1368DR,4472,5117,12167,0.998,551
2022-12-01T11:16:41,42.805,6.029,CST-1368DR,4472,5117,12167,0.998,551
2022-12-01T11:19:42,42.805,6.029,CST-1368DR,4472,5116,12164,0.999,551
2022-12-01T11:22:44,42.805,6.029,CST-1368DR,4472,5116,12166,0.999,551
2022-12-01T11:25:45,42.805,6.029,CST-1368DR,4472,5117,12167,0.998,551
2022-12-01T11:28:47,42.805,6.029,CST-1368DR,4472,5116,12166,0.999,551
2022-12-01T11:31:49,42.805,6.029,CST-1368DR,4472,5116,12166,0.999,551
2022-12-01T11:34:50,42.805,6.029,CST-1368DR,4472,5116,12164,0.999,551
2022-12-01T11:37:52,42.805,6.029,CST-1368DR,4472,5115,12163,01.000,551
2022-12-01T11:40:53,42.805,6.029,CST-1368DR,4472,5117,12167,0.998,551
2022-12-01T11:43:55,42.805,6.029,CST-1368DR,4472,5116,12166,0.999,551
2022-12-01T11:46:57,42.805,6.029,CST-1368DR,4472,5116,12166,0.999,551
2022-12-01T11:49:58,42.805,6.029,CST-1368DR,4472,5116,12166,0.999,551
2022-12-01T11:53:00,42.805,6.029,CST-1368DR,4472,5115,12163,01.000,551
2022-12-01T11:56:01,42.805,6.029,CST-1368DR,4472,5117,12167,0.998,551
2022-12-01T11:59:03,42.805,6.029,CST-1368DR,4472,5118,12169,0.998,551
2022-12-01T12:02:04,42.805,6.029,CST-1368DR,4472,5117,12169,0.998,551
2022-12-01T12:05:06,42.805,6.029,CST-1368DR,4472,5117,12167,0.998,551
2022-12-01T12:08:08,42.805,6.029,CST-1368DR,4472,5117,12167,0.998,551
2022-12-01T12:11:09,42.805,6.029,CST-1368DR,4472,5117,12168,0.998,551
2022-12-01T12:14:11,42.805,6.029,CST-1368DR,4472,5117,12167,0.998,551
2022-12-01T12:17:12,42.805,6.029,CST-1368DR,4472,5117,12167,0.998,551
2022-12-01T12:20:14,42.805,6.029,CST-1368DR,4472,5117,12167,0.998,551
2022-12-01T12:23:15,42.805,6.029,CST-1368DR,4472,5117,12167,0.998,551
2022-12-01T12:26:17,42.805,6.029,CST-1368DR,4472,5117,12168,0.998,551
2022-12-01T12:29:19,42.805,6.029,CST-1368DR,4472,5117,12168,0.998,551
2022-12-01T12:32:20,42.805,6.029,CST-1368DR,4472,5117,12169,0.998,551
2022-12-01T12:35:22,42.805,6.029,CST-1368DR,4472,5116,12164,0.999,551
2022-12-01T12:38:23,42.805,6.029,CST-1368DR,4472,5117,12169,0.998,551
2022-12-01T12:41:25,42.805,6.029,CST-1368DR,4472,5117,12169,0.998,551
2022-12-01T12:44:26,42.805,6.029,CST-1368DR,4472,5118,12170,0.997,551
2022-12-01T12:47:28,42.805,6.029,CST-1368DR,4472,5118,12169,0.998,551
2022-12-01T12:50:30,42.805,6.029,CST-1368DR,4472,5117,12167,0.998,551
2022-12-01T12:53:31,42.805,6.029,CST-1368DR,4472,5116,12166,0.999,551
2022-12-01T12:56:33,42.805,6.029,CST-1368DR,4472,5117,12167,0.998,551
2022-12-01T12:59:34,42.805,6.029,CST-1368DR,4472,5117,12167,0.998,551
2022-12-01T13:02:36,42.805,6.029,CST-1368DR,4472,5118,12169,0.998,551
2022-12-01T13:05:38,42.805,6.029,CST-1368DR,4472,5118,12169,0.998,551
2022-12-01T13:08:39,42.805,6.029,CST-1368DR,4472,5117,12167,0.998,551
2022-12-01T13:11:41,42.805,6.029,CST-1368DR,4472,5115,12164,0.999,551
2022-12-01T13:14:42,42.805,6.029,CST-1368DR,4472,5117,12167,0.998,551
2022-12-01T13:17:44,42.805,6.029,CST-1368DR,4472,5117,12169,0.998,551
2022-12-01T13:20:45,42.805,6.029,CST-1368DR,4472,5117,12169,0.998,551
2022-12-01T13:23:47,42.805,6.029,CST-1368DR,4472,5118,12170,0.997,551
2022-12-01T13:26:49,42.805,6.029,CST-1368DR,4472,5117,12169,0.998,551
2022-12-01T13:29:50,42.805,6.029,CST-1368DR,4472,5118,12170,0.997,551
2022-12-01T13:32:52,42.805,6.029,CST-1368DR,4472,5119,12172,0.997,551
2022-12-01T13:35:53,42.805,6.029,CST-1368DR,4472,5118,12170,0.997,551
2022-12-01T13:38:55,42.805,6.029,CST-1368DR,4472,5118,12169,0.998,551
2022-12-01T13:41:57,42.805,6.029,CST-1368DR,4472,5117,12169,0.998,551
2022-12-01T13:44:58,42.805,6.029,CST-1368DR,4472,5117,12167,0.998,551
2022-12-01T13:48:00,42.805,6.029,CST-1368DR,4472,5117,12169,0.998,551
2022-12-01T13:51:01,42.805,6.029,CST-1368DR,4472,5115,12164,0.999,551
2022-12-01T13:54:03,42.805,6.029,CST-1368DR,4472,5118,12169,0.998,551
2022-12-01T13:57:04,42.805,6.029,CST-1368DR,4472,5117,12167,0.998,551
2022-12-01T14:00:06,42.805,6.029,CST-1368DR,4472,5117,12167,0.998,551
2022-12-01T14:03:08,42.805,6.029,CST-1368DR,4472,5118,12170,0.997,551
2022-12-01T14:06:09,42.805,6.029,CST-1368DR,4472,5116,12166,0.999,551
2022-12-01T14:09:11,42.805,6.029,CST-1368DR,4472,5118,12171,0.997,551
2022-12-01T14:12:12,42.805,6.029,CST-1368DR,4472,5118,12171,0.997,551
2022-12-01T14:15:14,42.805,6.029,CST-1368DR,4472,5118,12169,0.998,551
2022-12-01T14:18:15,42.805,6.029,CST-1368DR,4472,5117,12167,0.998,551
2022-12-01T14:21:17,42.805,6.029,CST-1368DR,4472,5117,12169,0.998,551
2022-12-01T14:24:19,42.805,6.029,CST-1368DR,4472,5118,12170,0.997,551
2022-12-01T14:27:20,42.805,6.029,CST-1368DR,4472,5119,12172,0.997,551
2022-12-01T14:30:22,42.805,6.029,CST-1368DR,4472,5118,12170,0.997,551
2022-12-01T14:33:23,42.805,6.029,CST-1368DR,4472,5116,12166,0.999,551
2022-12-01T14:36:25,42.805,6.029,CST-1368DR,4472,5117,12167,0.998,551
2022-12-01T14:39:26,42.805,6.029,CST-1368DR,4472,5118,12170,0.997,551
2022-12-01T14:42:28,42.805,6.029,CST-1368DR,4472,5118,12171,0.997,551
2022-12-01T14:45:30,42.805,6.029,CST-1368DR,4472,5118,12170,0.997,551
2022-12-01T14:48:31,42.805,6.029,CST-1368DR,4472,5117,12169,0.998,551
2022-12-01T14:51:33,42.805,6.029,CST-1368DR,4472,5117,12167,0.998,551
2022-12-01T14:54:34,42.805,6.029,CST-1368DR,4472,5116,12166,0.999,551
2022-12-01T14:57:36,42.805,6.029,CST-1368DR,4472,5117,12169,0.998,551
2022-12-01T15:00:37,42.805,6.029,CST-1368DR,4472,5119,12172,0.997,551
2022-12-01T15:03:39,42.805,6.029,CST-1368DR,4472,5117,12169,0.998,551
2022-12-01T15:06:41,42.805,6.029,CST-1368DR,4472,5116,12164,0.999,551
2022-12-01T15:09:42,42.805,6.029,CST-1368DR,4472,5115,12164,0.999,551
2022-12-01T15:12:44,42.805,6.029,CST-1368DR,4472,5116,12166,0.999,551
2022-12-01T15:15:45,42.805,6.029,CST-1368DR,4472,5117,12168,0.998,551
2022-12-01T15:18:47,42.805,6.029,CST-1368DR,4472,5117,12167,0.998,551
2022-12-01T15:21:49,42.805,6.029,CST-1368DR,4472,5116,12166,0.999,551
2022-12-01T15:24:50,42.805,6.029,CST-1368DR,4472,5115,12164,0.999,551
2022-12-01T15:27:52,42.805,6.029,CST-1368DR,4472,5115,12164,0.999,551
2022-12-01T15:30:53,42.805,6.029,CST-1368DR,4472,5116,12164,0.999,551
2022-12-01T15:33:55,42.805,6.029,CST-1368DR,4472,5116,12166,0.999,551
2022-12-01T15:36:56,42.805,6.029,CST-1368DR,4472,5117,12167,0.998,551
2022-12-01T15:39:58,42.805,6.029,CST-1368DR,4472,5116,12166,0.999,551
2022-12-01T15:43:00,42.805,6.029,CST-1368DR,4472,5116,12166,0.999,551
2022-12-01T15:46:01,42.805,6.029,CST-1368DR,4472,5116,12166,0.999,551
2022-12-01T15:49:03,42.805,6.029,CST-1368DR,4472,5116,12164,0.999,551
2022-12-01T15:52:04,42.805,6.029,CST-1368DR,4472,5117,12167,0.998,551
2022-12-01T15:55:06,42.805,6.029,CST-1368DR,4472,5117,12167,0.998,551
2022-12-01T15:58:08,42.805,6.029,CST-1368DR,4472,5116,12166,0.999,551
2022-12-01T16:01:09,42.805,6.029,CST-1368DR,4472,5116,12166,0.999,551
2022-12-01T16:04:11,42.805,6.029,CST-1368DR,4472,5116,12166,0.999,551
2022-12-01T16:07:12,42.805,6.029,CST-1368DR,4472,5116,12166,0.999,551
2022-12-01T16:10:14,42.805,6.029,CST-1368DR,4472,5116,12164,0.999,551
2022-12-01T16:13:15,42.805,6.029,CST-1368DR,4472,5116,12166,0.999,551
2022-12-01T16:16:17,42.805,6.029,CST-1368DR,4472,5116,12166,0.999,551
2022-12-01T16:19:19,42.805,6.029,CST-1368DR,4472,5117,12167,0.998,551
2022-12-01T16:22:20,42.805,6.029,CST-1368DR,4472,5116,12166,0.999,551
2022-12-01T16:25:22,42.805,6.029,CST-1368DR,4472,5117,12167,0.998,551
2022-12-01T16:28:23,42.805,6.029,CST-1368DR,4472,5116,12164,0.999,551
2022-12-01T16:31:25,42.805,6.029,CST-1368DR,4472,5117,12169,0.998,551
2022-12-01T16:34:26,42.805,6.029,CST-1368DR,4472,5117,12168,0.998,551
2022-12-01T16:37:28,42.805,6.029,CST-1368DR,4472,5116,12164,0.999,551
2022-12-01T16:40:30,42.805,6.029,CST-1368DR,4472,5115,12164,0.999,551
2022-12-01T16:43:31,42.805,6.029,CST-1368DR,4472,5117,12167,0.998,551